TimeEST,TemperatureF,Dew PointF,Humidity,Sea Level PressureIn,VisibilityMPH,Wind Direction,Wind SpeedMPH,Gust SpeedMPH,PrecipitationIn,Events,Conditions,WindDirDegrees,DateUTC
12:15 AM,54.7,48.2,79,30.03,10.0,Calm,Calm,-,N/A,,Overcast,0,2012-12-09 05:15:00
12:35 AM,52.0,47.3,84,30.03,10.0,Calm,Calm,-,N/A,,Overcast,0,2012-12-09 05:35:00
12:55 AM,53.4,47.7,81,30.03,10.0,Calm,Calm,-,N/A,,Overcast,0,2012-12-09 05:55:00
1:15 AM,52.5,47.5,83,30.03,10.0,Calm,Calm,-,N/A,,Mostly Cloudy,0,2012-12-09 06:15:00
1:35 AM,49.8,46.2,87,30.04,10.0,Calm,Calm,-,N/A,,Scattered Clouds,0,2012-12-09 06:35:00
2:15 AM,48.7,45.0,87,30.05,7.0,Calm,Calm,-,N/A,,Mostly Cloudy,0,2012-12-09 07:15:00
2:35 AM,49.1,45.7,88,30.05,7.0,Calm,Calm,-,N/A,,Mostly Cloudy,0,2012-12-09 07:35:00
2:55 AM,47.5,44.8,90,30.06,7.0,Calm,Calm,-,N/A,,Mostly Cloudy,0,2012-12-09 07:55:00
3:15 AM,48.4,45.1,89,30.05,7.0,Calm,Calm,-,N/A,,Overcast,0,2012-12-09 08:15:00
3:35 AM,51.1,46.4,84,30.08,10.0,WNW,8.1,-,N/A,,Overcast,290,2012-12-09 08:35:00
3:55 AM,51.8,48.0,87,30.06,7.0,NE,3.5,-,N/A,Rain,Light Rain,40,2012-12-09 08:55:00
4:15 AM,51.1,48.2,90,30.07,7.0,Calm,Calm,-,N/A,,Overcast,0,2012-12-09 09:15:00
4:35 AM,51.8,48.7,89,30.06,5.0,Calm,Calm,-,0.01,Rain,Light Rain,0,2012-12-09 09:35:00
4:55 AM,52.2,49.5,91,30.07,7.0,NNW,5.8,-,0.01,,Overcast,340,2012-12-09 09:55:00
5:15 AM,52.7,49.8,90,30.08,7.0,North,3.5,-,N/A,,Overcast,360,2012-12-09 10:15:00
5:35 AM,52.0,49.3,90,30.09,5.0,Calm,Calm,-,N/A,,Overcast,0,2012-12-09 10:35:00
5:55 AM,51.6,49.6,93,30.10,4.0,Calm,Calm,-,N/A,Rain,Light Rain,0,2012-12-09 10:55:00
6:15 AM,52.3,50.5,94,30.10,5.0,Calm,Calm,-,N/A,Rain,Rain,0,2012-12-09 11:15:00
6:35 AM,52.7,50.4,92,30.10,5.0,NE,3.5,-,N/A,,Overcast,40,2012-12-09 11:35:00
6:55 AM,52.9,50.9,93,30.11,5.0,NE,4.6,-,N/A,,Overcast,40,2012-12-09 11:55:00
7:15 AM,53.1,50.9,92,30.12,4.0,North,3.5,-,N/A,Rain,Rain,10,2012-12-09 12:15:00
7:35 AM,52.9,50.9,93,30.13,3.0,ENE,6.9,-,0.01,Rain,Rain,60,2012-12-09 12:35:00
7:55 AM,52.9,50.9,93,30.13,3.0,East,4.6,-,0.02,,Drizzle,80,2012-12-09 12:55:00
8:15 AM,52.7,50.4,92,30.14,3.0,Calm,Calm,-,N/A,Rain,Rain,0,2012-12-09 13:15:00
8:35 AM,52.7,50.4,92,30.14,2.5,Calm,Calm,-,0.01,Rain,Light Rain,0,2012-12-09 13:35:00
8:55 AM,52.7,50.5,92,30.16,2.5,Calm,Calm,-,0.03,Rain,Light Rain,0,2012-12-09 13:55:00
9:15 AM,52.7,50.5,92,30.16,2.0,East,3.5,-,0.01,Rain,Rain,90,2012-12-09 14:15:00
9:35 AM,53.1,51.1,93,30.16,2.5,Calm,Calm,-,0.01,,Overcast,0,2012-12-09 14:35:00
9:55 AM,53.6,51.3,92,30.16,2.5,Calm,Calm,-,0.01,,Overcast,0,2012-12-09 14:55:00
10:35 AM,53.6,51.4,92,30.15,2.0,NE,3.5,-,N/A,,Overcast,50,2012-12-09 15:35:00
10:55 AM,53.6,51.3,92,30.14,3.0,NE,3.5,-,N/A,,Overcast,40,2012-12-09 15:55:00
11:15 AM,53.6,51.1,91,30.14,2.5,North,4.6,-,N/A,,Overcast,10,2012-12-09 16:15:00
11:35 AM,54.0,51.4,91,30.13,3.0,North,3.5,-,N/A,,Overcast,10,2012-12-09 16:35:00
11:55 AM,54.1,51.3,90,30.13,3.0,North,3.5,-,N/A,,Overcast,350,2012-12-09 16:55:00
12:15 PM,54.1,51.3,90,30.11,3.0,North,3.5,-,N/A,,Overcast,360,2012-12-09 17:15:00
12:35 PM,54.1,51.4,91,30.11,2.5,Calm,Calm,-,N/A,,Overcast,0,2012-12-09 17:35:00
12:55 PM,54.1,51.1,89,30.10,3.0,Calm,Calm,-,N/A,,Overcast,0,2012-12-09 17:55:00
1:15 PM,54.5,51.4,89,30.10,3.0,Calm,Calm,-,N/A,,Overcast,0,2012-12-09 18:15:00
1:35 PM,54.1,51.4,91,30.09,2.5,NNW,4.6,-,N/A,,Overcast,340,2012-12-09 18:35:00
1:55 PM,53.8,51.1,91,30.09,2.5,WNW,4.6,-,N/A,,Overcast,300,2012-12-09 18:55:00
2:15 PM,53.6,51.1,91,30.08,2.5,NW,3.5,-,N/A,,Overcast,320,2012-12-09 19:15:00
2:35 PM,53.6,50.9,91,30.08,3.0,Calm,Calm,-,N/A,,Overcast,0,2012-12-09 19:35:00
2:55 PM,53.8,51.1,91,30.08,3.0,Calm,Calm,-,N/A,,Overcast,0,2012-12-09 19:55:00
3:15 PM,53.6,50.9,91,30.09,3.0,Calm,Calm,-,N/A,,Overcast,0,2012-12-09 20:15:00
3:35 PM,53.8,50.5,89,30.08,4.0,Calm,Calm,-,N/A,,Overcast,0,2012-12-09 20:35:00
3:55 PM,54.1,49.8,85,30.08,7.0,Calm,Calm,-,N/A,,Overcast,0,2012-12-09 20:55:00
4:15 PM,53.6,50.5,89,30.06,3.0,Calm,Calm,-,N/A,,Overcast,0,2012-12-09 21:15:00
4:35 PM,52.9,50.4,91,30.07,2.5,Calm,Calm,-,N/A,,Overcast,0,2012-12-09 21:35:00
4:55 PM,52.9,50.4,91,30.07,3.0,Calm,Calm,-,N/A,,Overcast,0,2012-12-09 21:55:00
5:15 PM,53.1,49.3,87,30.07,10.0,Calm,Calm,-,N/A,,Overcast,0,2012-12-09 22:15:00
5:35 PM,52.9,49.5,88,30.08,7.0,Calm,Calm,-,N/A,,Overcast,0,2012-12-09 22:35:00
5:55 PM,52.7,49.5,89,30.08,10.0,Calm,Calm,-,N/A,,Overcast,0,2012-12-09 22:55:00
6:15 PM,52.7,49.8,90,30.07,7.0,Calm,Calm,-,N/A,,Overcast,0,2012-12-09 23:15:00
6:35 PM,52.7,50.0,91,30.07,5.0,Calm,Calm,-,N/A,,Overcast,0,2012-12-09 23:35:00
6:55 PM,52.2,50.0,92,30.06,3.0,Calm,Calm,-,N/A,,Overcast,0,2012-12-09 23:55:00
7:15 PM,51.8,50.0,94,30.06,3.0,Calm,Calm,-,N/A,,Overcast,0,2012-12-10 00:15:00
7:35 PM,51.8,50.0,94,30.05,3.0,Calm,Calm,-,N/A,,Overcast,0,2012-12-10 00:35:00
7:55 PM,51.8,50.0,94,30.05,3.0,NNW,3.5,-,N/A,,Overcast,340,2012-12-10 00:55:00
8:15 PM,51.8,49.6,92,30.06,3.0,NNW,3.5,-,N/A,,Overcast,330,2012-12-10 01:15:00
8:35 PM,51.6,49.5,92,30.05,3.0,North,3.5,-,N/A,,Overcast,350,2012-12-10 01:35:00
8:55 PM,51.4,49.5,93,30.03,3.0,Calm,Calm,-,N/A,,Overcast,0,2012-12-10 01:55:00
9:15 PM,51.3,49.3,93,30.03,3.0,Calm,Calm,-,N/A,,Overcast,0,2012-12-10 02:15:00
9:35 PM,51.1,49.3,94,30.01,2.5,Calm,Calm,-,N/A,,Overcast,0,2012-12-10 02:35:00
9:55 PM,51.1,49.3,94,30.01,2.5,Calm,Calm,-,N/A,,Overcast,0,2012-12-10 02:55:00
10:15 PM,50.9,49.3,94,30.00,2.5,Calm,Calm,-,N/A,,Overcast,0,2012-12-10 03:15:00
10:35 PM,50.9,49.3,94,30.00,2.0,Calm,Calm,-,N/A,,Overcast,0,2012-12-10 03:35:00
10:55 PM,50.9,49.3,94,29.98,2.0,Calm,Calm,-,N/A,,Overcast,0,2012-12-10 03:55:00
11:15 PM,51.1,49.5,94,29.98,2.5,Calm,Calm,-,N/A,,Overcast,0,2012-12-10 04:15:00
11:35 PM,50.9,49.3,94,29.97,2.0,Calm,Calm,-,N/A,,Overcast,0,2012-12-10 04:35:00
11:55 PM,50.9,49.3,94,29.96,2.0,Calm,Calm,-,N/A,,Overcast,0,2012-12-10 04:55:00